EW4115 Weather Reports


Display with metric or nautical units.
time (UTC)temp
F
wind
direction
speed
MPH
gust
MPH
rain 1hr
in
rain 24hr
in
rain mn
in
humidity
%
barometer
mb
20260901011501 78 10 0.0 1.0 0.00 0.00 0.00 49 1012.5
20260901010002 78 10 0.0 1.0 0.00 0.00 0.00 48 1012.5
20260901004600 78 10 0.0 3.0 0.00 0.00 0.00 49 1012.6
20260901003058 78 12 0.0 1.0 0.00 0.00 0.00 48 1012.6
20260901001558 79 12 0.0 2.0 0.00 0.00 0.00 48 1012.6
20260901000100 79 12 0.0 1.0 0.00 0.00 0.00 46 1012.7
20260831234552 80 12 0.0 0.0 0.00 0.00 0.00 46 1012.9
20260831233049 80 12 0.0 0.0 0.00 0.00 0.00 45 1013.0
20260831231549 80 12 0.0 0.0 0.00 0.00 0.00 43 1013.1
20260831230047 81 12 0.0 2.0 0.00 0.00 0.00 42 1013.2
20260831224546 81 12 0.0 3.0 0.00 0.00 0.00 42 1013.3
20260831223044 80 14 1.0 5.0 0.00 0.00 0.00 43 1013.3
20260831221542 80 299 0.0 3.0 0.00 0.00 0.00 43 1013.5
20260831220041 80 298 0.0 3.0 0.00 0.00 0.00 43 1013.6
20260831214539 80 298 0.0 1.0 0.00 0.00 0.00 43 1013.7
20260831213039 80 298 0.0 3.0 0.00 0.00 0.00 43 1013.7
20260831211537 81 298 0.0 2.0 0.00 0.00 0.00 44 1013.6
20260831210039 81 298 0.0 2.0 0.00 0.00 0.00 44 1013.6
20260831204537 82 298 0.0 0.0 0.00 0.00 0.00 44 1013.6
20260831203034 82 298 0.0 4.0 0.00 0.00 0.00 44 1013.6
20260831201533 82 298 0.0 2.0 0.00 0.00 0.00 42 1013.6
20260831200037 82 298 0.0 4.0 0.00 0.00 0.00 42 1013.7
20260831194538 83 294 0.0 5.0 0.00 0.00 0.00 41 1013.5
20260831193032 83 289 0.0 3.0 0.00 0.00 0.00 41 1013.5
20260831191535 83 296 1.0 5.0 0.00 0.00 0.00 41 1013.4
20260831190030 84 311 0.0 3.0 0.00 0.00 0.00 41 1013.2
20260831184532 84 311 0.0 2.0 0.00 0.00 0.00 40 1013.0
20260831183029 84 312 1.0 6.0 0.00 0.00 0.00 40 1012.9
20260831181529 84 6 0.0 3.0 0.00 0.00 0.00 40 1012.8
20260831180029 84 8 0.0 3.0 0.00 0.00 0.00 40 1012.8
20260831174531 85 8 1.0 3.0 0.00 0.00 0.00 41 1012.7
20260831173027 85 102 0.0 2.0 0.00 0.00 0.00 40 1012.7
20260831171527 86 102 0.0 2.0 0.00 0.00 0.00 41 1012.6
20260831170027 86 102 0.0 3.0 0.00 0.00 0.00 40 1012.6
20260831164526 87 102 0.0 3.0 0.00 0.00 0.00 39 1012.5
20260831163028 87 102 0.0 3.0 0.00 0.00 0.00 38 1012.5
20260831161531 88 100 0.0 2.0 0.00 0.00 0.00 38 1012.5
20260831160024 89 97 1.0 4.0 0.00 0.00 0.00 36 1012.5
20260831154524 90 98 0.0 7.0 0.00 0.00 0.00 36 1012.5
20260831153023 91 82 0.0 4.0 0.00 0.00 0.00 36 1012.4
20260831151523 91 52 0.0 5.0 0.00 0.00 0.00 36 1012.4
20260831150022 92 101 3.0 9.0 0.00 0.00 0.00 35 1012.3
20260831144521 92 332 0.0 8.0 0.00 0.00 0.00 35 1012.3
20260831143019 92 308 1.0 8.0 0.00 0.00 0.00 35 1012.5
20260831141518 92 135 2.0 8.0 0.00 0.00 0.00 36 1012.7
20260831140018 93 77 1.0 6.0 0.00 0.00 0.00 36 1012.8
20260831134521 92 73 3.0 9.0 0.00 0.00 0.00 37 1012.7
20260831133019 93 360 3.0 10.0 0.00 0.00 0.00 36 1012.7
20260831131530 93 77 2.0 10.0 0.00 0.00 0.00 36 1012.6
20260831130014 93 333 2.0 9.0 0.00 0.00 0.00 36 1012.7
20260831124514 94 10 1.0 8.0 0.00 0.00 0.00 35 1012.9
20260831123011 94 62 2.0 8.0 0.00 0.00 0.00 36 1013.0
20260831121513 93 96 1.0 9.0 0.00 0.00 0.00 36 1013.1
20260831120002 93 350 2.0 6.0 0.00 0.00 0.00 37 1013.2
20260831114558 93 355 2.0 19.0 0.00 0.00 0.00 37 1013.3
20260831113053 92 326 2.0 10.0 0.00 0.00 0.00 37 1013.5
20260831111549 92 342 4.0 12.0 0.00 0.00 0.00 38 1013.6
20260831110047 92 41 1.0 10.0 0.00 0.00 0.00 38 1013.8
20260831104542 92 350 2.0 11.0 0.00 0.00 0.00 38 1014.0
20260831103041 91 331 4.0 10.0 0.00 0.00 0.00 37 1014.1
20260831101538 91 14 2.0 10.0 0.00 0.00 0.00 38 1014.2
20260831100034 91 341 3.0 11.0 0.00 0.00 0.00 39 1014.2
20260831094530 90 76 1.0 9.0 0.00 0.00 0.00 40 1014.4
20260831093028 90 286 4.0 11.0 0.00 0.00 0.00 40 1014.4
20260831091526 90 320 3.0 8.0 0.00 0.00 0.00 40 1014.6
20260831090023 90 31 0.0 8.0 0.00 0.00 0.00 41 1014.6
20260831084519 89 62 3.0 10.0 0.00 0.00 0.00 42 1014.7
20260831083028 89 319 4.0 9.0 0.00 0.00 0.00 42 1014.8
20260831081510 88 338 3.0 8.0 0.00 0.00 0.00 43 1014.8
20260831080005 87 345 2.0 10.0 0.00 0.00 0.00 45 1014.7
20260831074632 87 50 2.0 11.0 0.00 0.00 0.00 46 1014.8
20260831073034 86 12 2.0 8.0 0.00 0.00 0.00 47 1014.8
20260831071529 85 320 0.0 5.0 0.00 0.00 0.00 49 1014.7
20260831070027 84 293 3.0 8.0 0.00 0.00 0.00 50 1014.8
20260831064521 83 311 2.0 10.0 0.00 0.00 0.00 51 1014.7
20260831063016 83 110 1.0 6.0 0.00 0.00 0.00 50 1014.7
20260831061512 83 296 2.0 5.0 0.00 0.00 0.00 53 1014.8
20260831060007 81 355 0.0 4.0 0.00 0.00 0.00 55 1014.8
20260831054502 81 360 1.0 5.0 0.00 0.00 0.00 56 1014.7
20260831053100 80 318 1.0 6.0 0.00 0.00 0.00 57 1014.7
20260831051556 79 308 1.0 4.0 0.00 0.00 0.00 56 1014.6
20260831050050 78 309 0.0 3.0 0.00 0.00 0.00 55 1014.5
20260831044549 78 311 1.0 3.0 0.00 0.00 0.00 55 1014.4
20260831043041 77 300 1.0 5.0 0.00 0.00 0.00 56 1014.4
20260831041626 76 268 1.0 3.0 0.00 0.00 0.00 57 1014.3
20260831040037 75 268 0.0 3.0 0.00 0.00 0.00 58 1014.3
20260831034536 75 268 0.0 0.0 0.00 0.00 0.00 58 1014.3
20260831033035 75 268 0.0 1.0 0.00 0.00 0.00 59 1014.3
20260831031535 75 268 0.0 1.0 0.00 0.00 0.00 59 1014.3
20260831030036 75 268 0.0 1.0 0.00 0.00 0.00 60 1014.2
20260831024540 75 268 0.0 1.0 0.00 0.00 0.00 59 1014.1
20260831023033 76 268 0.0 1.0 0.00 0.00 0.00 59 1014.2
20260831021538 76 268 0.0 1.0 0.00 0.00 0.00 58 1014.2
20260831020032 76 268 0.0 1.0 0.00 0.00 0.00 56 1014.2
20260831014527 76 268 0.0 1.0 0.00 0.00 0.00 55 1014.2
20260831013026 77 268 0.0 1.0 0.00 0.00 0.00 54 1014.3